FW9919 Weather Reports


time (UTC)temp
C
wind
direction
speed
KPH
gust
KPH
rain 1hr
cm
rain 24hr
cm
rain mn
cm
humidity
%
barometer
mb
20260503194555 13 180 8.0 16.1 0.00 0.03 0.03 84 1014.9
20260503193051 13 182 6.4 12.9 0.00 0.03 0.03 85 1014.7
20260503191549 13 171 9.7 14.5 0.00 0.03 0.03 85 1014.6
20260503190053 13 179 11.3 16.1 0.00 0.03 0.03 85 1015.0
20260503184552 13 172 9.7 14.5 0.00 0.03 0.03 85 1014.9
20260503183051 13 174 11.3 16.1 0.00 0.03 0.03 84 1015.0
20260503181601 13 0 0.0 1.6 0.00 0.03 0.03 87 1014.7
20260503180054 12 0 0.0 9.7 0.00 0.03 0.03 87 1014.6
20260503174554 12 158 9.7 16.1 0.00 0.03 0.03 86 1014.7
20260503173059 12 131 6.4 11.3 0.00 0.03 0.03 88 1014.6
20260503171554 12 182 6.4 9.7 0.00 0.03 0.03 87 1014.7
20260503081551 12 292 11.3 16.1 0.00 0.00 0.00 81 1013.0
20260503071601 13 271 6.4 14.5 0.00 0.00 0.00 82 1013.0
20260503060108 13 295 3.2 11.3 0.00 0.00 0.00 82 1013.2
20260503054558 13 317 3.2 16.1 0.00 0.00 0.00 81 1013.3
20260503053052 13 257 9.7 16.1 0.00 0.00 0.00 81 1013.4
20260503051553 13 271 8.0 12.9 0.00 0.00 0.00 81 1013.5
20260503044556 13 257 3.2 8.0 0.00 0.00 0.00 80 1013.5
20260503043056 13 273 6.4 12.9 0.00 0.00 0.00 80 1013.5
20260503041553 13 276 8.0 14.5 0.00 0.00 0.00 80 1013.5
20260503040057 13 273 8.0 14.5 0.00 0.00 0.00 80 1013.4
20260503034552 13 291 6.4 14.5 0.00 0.00 0.00 80 1013.2
20260503033107 13 266 8.0 14.5 0.00 0.00 0.00 80 1013.0
20260503031552 13 242 6.4 16.1 0.00 0.00 0.00 80 1012.8
20260503030052 13 263 6.4 14.5 0.00 0.00 0.00 80 1012.9
20260503024554 13 273 6.4 16.1 0.00 0.00 0.00 81 1012.8
20260503023101 13 290 6.4 16.1 0.00 0.00 0.00 81 1012.6
20260503021604 13 298 9.7 17.7 0.00 0.00 0.00 81 1012.5
20260503020052 13 294 8.0 16.1 0.00 0.00 0.00 81 1012.6
20260503014554 13 284 9.7 19.3 0.00 0.00 0.00 82 1012.7
20260503013103 13 260 12.9 17.7 0.00 0.00 0.00 82 1012.8
20260503011603 13 238 8.0 17.7 0.00 0.00 0.00 83 1012.8
20260503010055 13 234 12.9 20.9 0.00 0.00 0.00 82 1012.9
20260503004552 13 250 9.7 22.5 0.00 0.00 0.00 81 1012.9
20260503003101 13 261 12.9 19.3 0.00 0.00 0.00 81 1012.7
20260503001551 13 271 8.0 16.1 0.00 0.00 0.00 82 1012.9
20260502234551 13 323 9.7 19.3 0.00 0.00 0.00 83 1013.2
20260502233059 13 309 11.3 20.9 0.00 0.00 0.00 83 1013.2
20260502231551 13 263 11.3 24.1 0.00 0.00 0.00 83 1013.4
20260502230053 13 280 14.5 20.9 0.00 0.00 0.00 83 1013.3
20260502224552 13 269 11.3 19.3 0.00 0.00 0.00 83 1013.8
20260502223053 13 300 6.4 17.7 0.00 0.00 0.00 84 1014.1
20260502221554 13 271 12.9 20.9 0.00 0.00 0.00 84 1014.2
20260502220055 13 269 8.0 19.3 0.00 0.00 0.00 85 1014.4
20260502214552 13 256 14.5 20.9 0.00 0.00 0.00 87 1014.5
20260502213051 13 263 17.7 24.1 0.00 0.00 0.00 86 1014.6
20260502211555 13 228 16.1 20.9 0.00 0.00 0.00 84 1014.7
20260502210056 13 246 12.9 17.7 0.00 0.00 0.00 83 1014.8
20260502204607 13 218 11.3 17.7 0.00 0.00 0.00 85 1014.7
20260502203051 13 246 8.0 14.5 0.00 0.00 0.00 86 1014.9
20260502201557 13 255 8.0 16.1 0.00 0.00 0.00 86 1015.3
20260502200056 13 259 6.4 11.3 0.00 0.00 0.00 85 1015.4